{"data":{"norad_id":65652,"epoch":"2026-05-25T02:03:23.761152Z","epoch_age_seconds":74408,"freshness":"FRESH","line1":"1 65652U 25211A   26145.08569168  .00004075  00000+0  28632-3 0  9995","line2":"2 65652  97.4494 188.9456 0001977 182.3762 177.7456 15.05648350 38530","mean_motion":15.0564835,"eccentricity":0.0001977,"inclination_deg":97.4494,"raan_deg":188.9456,"arg_perigee_deg":182.3762,"mean_anomaly_deg":177.7456,"bstar":0.00028632,"rev_number":3853,"period_min":95.639861724685,"perigee_km":548.14661821449,"apogee_km":550.88581229581,"semimajor_km":6927.6532152551,"source":"CELESTRAK","updated_at":"2026-05-25T13:38:20.887404Z"}}